Location: Wingville
(42.9917°N, 90.4915°W)
Time: 23:47:41
(UTC+00:00)

QB50P2 - Visible Passes

Search period start: 27 June 2022 00:00
Search period end: 07 July 2022 00:00
Orbit: 589 x 607 km, 97.9° (Epoch: 27 June)

Date Brightness Start Highest point End Pass type
(mag) Time Alt. Az. Time Alt. Az. Time Alt. Az.
27 Jun ? 07:28:40 10° NNE 07:32:55 86° E 07:33:46 57° S visible
28 Jun ? 07:39:10 10° N 07:43:23 73° WNW 07:44:21 51° SW visible
29 Jun ? 06:15:46 10° ENE 06:17:50 13° E 06:18:13 13° E visible
29 Jun ? 07:49:41 10° N 07:53:50 55° WNW 07:54:55 42° WSW visible
30 Jun ? 06:25:35 10° NE 06:28:25 17° E 06:28:47 17° E visible
30 Jun ? 08:00:15 10° N 08:04:15 42° WNW 08:05:29 33° WSW visible
01 Jul ? 06:35:38 10° NE 06:38:58 22° E 06:39:21 22° ESE visible
01 Jul ? 08:10:52 10° N 08:14:40 33° WNW 08:16:03 26° WSW visible
02 Jul ? 06:45:49 10° NE 06:49:30 28° E 06:49:55 28° ESE visible
02 Jul ? 08:21:32 10° NNW 08:25:04 26° WNW 08:26:37 21° W visible
03 Jul ? 06:56:04 10° NNE 07:00:01 36° E 07:00:28 35° ESE visible
03 Jul ? 08:32:15 10° NNW 08:35:26 21° WNW 08:37:10 16° W visible
04 Jul ? 07:06:23 10° NNE 07:10:30 47° E 07:11:01 45° ESE visible
04 Jul ? 08:43:05 10° NNW 08:45:48 17° WNW 08:47:43 13° W visible
05 Jul ? 07:16:46 10° NNE 07:20:59 63° ESE 07:21:34 56° SE visible
05 Jul ? 08:54:06 10° NNW 08:56:07 13° WNW 08:58:09 10° W visible
06 Jul ? 07:27:10 10° NNE 07:31:26 82° E 07:32:06 63° S visible
06 Jul ? 09:05:40 10° NW 09:06:26 10° WNW 09:07:12 10° WNW visible
